Weather History for Wallops Island, VA

Change the Weather History Date:

Monday, March 4, 2013

  Actual Average Record
Temperature  
Mean Temperature 38 °F 42 °F  
Max Temperature 44 °F 51 °F 74 °F (2004)
Min Temperature 31 °F 33 °F 14 °F (1996)
Degree Days  
Heating Degree Days 27    
Month to date heating degree days 105  
Since 1 July heating degree days 2802  
Cooling Degree Days 0    
Month to date cooling degree days 0  
Year to date cooling degree days 0  
Moisture  
Dew Point 17 °F    
Average Humidity 46    
Maximum Humidity 58    
Minimum Humidity 33    
Precipitation  
Precipitation 0.00 in 0.12 in 0.56 in (2001)
Month to date precipitation T 0.48  
Year to date precipitation 8.24 6.28  
Sea Level Pressure  
Sea Level Pressure 29.94 in    
Wind  
Wind Speed 18 mph (NW)    
Max Wind Speed 22 mph    
Max Gust Speed 35 mph    
Visibility 10 miles    
Events      
T = Trace of Precipitation, MM = Missing Value Source: NWS Daily Summary

Daily Weather History Graph

Daily Weather History Graph

Search for Another Location

Airport:

Trip Planner

Search our weather history database for the weather conditions in past years. The results will help you decide how hot, cold, wet, or windy it might be!

Date:

Astronomy

Mar. 04, 2013 Rise Set
Actual Time 6:28 AM EST 5:58 PM EST
Civil Twilight 6:02 AM EST 6:24 PM EST
Nautical Twilight 5:32 AM EST 6:55 PM EST
Astronomical Twilight 5:01 AM EST 7:25 PM EST
Moon 12:31 AM EST (3/4) 10:42 AM EST (3/4)
Length of Visible Light 12h 22m
Length of Day
11h 29m
Waning Gibbous, 52% of the Moon is Illuminated
Mar 4
Waning Gibbous
Mar 4
Last Quarter
Mar 11
New
Mar 19
First Quarter
Mar 27
Full

Hourly Weather History & Observations

Time (EST) Temp. Windchill Dew Point Humidity Pressure Visibility Wind Dir Wind Speed Gust Speed Precip Events Conditions
12:54 AM 34.0 °F - 17.1 °F 50% 29.88 in 10.0 mi North - - N/A   Clear
1:54 AM 32.0 °F - 17.1 °F 54% 29.89 in 10.0 mi North - - N/A   Clear
2:54 AM 30.9 °F - 17.1 °F 57% 29.88 in 10.0 mi North - - N/A   Clear
3:54 AM 30.9 °F - 17.1 °F 57% 29.89 in 10.0 mi North - - N/A   Mostly Cloudy
4:54 AM 32.0 °F - 18.0 °F 56% 29.90 in 10.0 mi North - - N/A   Overcast
5:54 AM 30.9 °F - 17.1 °F 57% 29.92 in 10.0 mi North - - N/A   Mostly Cloudy
6:54 AM 32.0 °F - 18.0 °F 56% 29.94 in 10.0 mi North - - N/A   Scattered Clouds
7:54 AM 34.0 °F - 17.1 °F 50% 29.96 in 10.0 mi North - - N/A   Clear
8:54 AM 35.1 °F - 16.0 °F 46% 29.96 in 10.0 mi North - - N/A   Scattered Clouds
9:54 AM 37.0 °F 27.7 °F 15.1 °F 41% 29.96 in 10.0 mi NW 16.1 mph 32.2 mph N/A   Scattered Clouds
10:54 AM 39.0 °F 29.9 °F 17.1 °F 41% 29.94 in 10.0 mi NNW 17.3 mph 32.2 mph N/A   Scattered Clouds
11:54 AM 39.9 °F - 16.0 °F 38% 29.94 in 10.0 mi North - - N/A   Clear
12:54 PM 41.0 °F 31.4 °F 16.0 °F 36% 29.93 in 10.0 mi WNW 21.9 mph 34.5 mph N/A   Partly Cloudy
1:54 PM 42.1 °F 33.9 °F 17.1 °F 37% 29.91 in 10.0 mi NW 17.3 mph 28.8 mph N/A   Partly Cloudy
2:54 PM 42.1 °F 33.9 °F 17.1 °F 37% 29.91 in 10.0 mi NW 17.3 mph 28.8 mph N/A   Partly Cloudy
3:54 PM 44.1 °F 35.9 °F 18.0 °F 35% 29.91 in 10.0 mi NW 19.6 mph 29.9 mph N/A   Clear
4:54 PM 43.0 °F - 17.1 °F 35% 29.91 in 10.0 mi North - - N/A   Clear
5:54 PM 39.9 °F - 19.0 °F 43% 29.94 in 10.0 mi North - - N/A   Clear
6:54 PM 37.9 °F - 19.0 °F 47% 29.96 in 10.0 mi North - - N/A   Clear
7:54 PM 37.0 °F - 19.0 °F 48% 29.98 in 10.0 mi North - - N/A   Clear
8:54 PM 35.1 °F - 19.0 °F 52% 30.00 in 10.0 mi North - - N/A   Clear
9:54 PM 39.0 °F - 17.1 °F 41% 30.01 in 10.0 mi North - - N/A   Clear
10:54 PM 37.9 °F - 16.0 °F 41% 30.01 in 10.0 mi North - - N/A   Clear
11:54 PM 36.0 °F - 16.0 °F 44% 30.01 in 10.0 mi North - - N/A   Clear